Wind_Speed
39 37 38 42 44 45 46 46 46 46 45 46 46 46 47 47 47 46 45 44 43 42 42 41 41 41 40 39 39 39 37 35 34 33 31 31 31 31 31 30 28 28 27 27 27 26 24 23 23 22 22 21 21 20 20 19 19 21 22 22 21 18 15
40 39 42 45 47 47 48 48 48 48 48 48 48 48 48 49 48 47 46 45 44 43 42 42 42 41 41 41 40 40 39 38 37 35 33 32 31 31 32 31 29 28 28 29 29 28 27 24 23 24 24 22 21 21 21 22 22 21 21 22 23 20 16
40 41 46 49 49 49 50 50 51 50 50 50 50 50 50 49 49 48 47 46 45 44 43 42 42 42 42 42 42 42 41 40 39 38 35 34 32 31 32 32 31 29 29 30 30 29 29 27 24 24 26 24 22 21 22 23 24 23 22 23 24 22 18
42 45 50 52 51 52 52 52 53 53 52 52 52 52 51 50 49 48 47 46 46 45 44 43 43 43 43 43 43 43 43 42 41 40 38 36 34 33 32 32 32 31 30 30 30 30 30 29 27 25 26 26 23 22 24 25 24 24 22 21 23 23 20
45 49 52 54 53 54 54 54 55 55 54 54 54 54 53 52 50 49 47 46 46 46 46 46 46 45 45 45 44 44 44 44 44 43 40 38 37 36 34 33 33 32 32 32 31 30 31 31 29 27 27 28 25 23 25 26 24 25 23 20 22 22 20
49 52 54 54 55 55 56 56 56 56 56 56 56 56 55 54 52 51 50 48 47 48 48 48 49 49 48 48 47 47 47 46 46 46 44 41 40 39 37 35 34 34 34 34 33 32 32 32 30 28 29 29 27 25 26 26 25 26 26 23 22 23 22
52 53 54 55 56 57 58 57 57 57 57 58 57 57 57 56 55 54 54 53 52 51 50 51 51 52 52 52 51 51 50 50 49 49 48 45 43 42 41 38 36 35 35 36 35 34 34 34 32 31 31 30 28 27 26 26 26 27 28 25 24 24 23
55 55 56 57 57 58 58 59 58 58 59 59 59 59 59 59 59 59 58 57 57 55 54 54 53 53 54 54 54 54 53 53 52 52 51 50 47 45 44 42 39 37 36 37 37 36 36 35 33 34 33 30 29 27 27 27 26 26 28 27 25 23 23
56 57 57 58 58 59 59 60 60 60 60 61 61 62 62 62 62 62 61 60 60 59 58 58 56 55 55 55 55 56 56 55 55 54 54 53 52 49 47 46 43 40 38 39 39 38 38 36 34 35 35 31 30 28 28 28 26 25 28 29 28 25 23
57 58 58 58 59 60 60 61 61 62 62 63 63 64 64 64 64 64 64 64 63 63 62 62 61 59 59 58 57 57 58 58 57 57 56 55 55 52 50 49 47 44 41 41 41 40 40 38 35 35 35 33 31 30 30 29 27 27 30 31 29 27 25
58 58 58 59 60 60 61 61 62 63 64 64 64 65 65 65 65 65 66 66 66 66 66 65 64 63 62 61 60 59 59 60 60 59 58 58 57 56 53 51 50 47 44 44 43 41 42 41 37 36 36 34 33 32 32 31 29 28 32 32 28 27 28
58 59 59 60 61 62 62 63 64 65 65 66 66 66 66 66 66 67 67 68 68 67 67 67 66 66 65 64 62 61 60 60 61 61 61 60 59 58 57 54 52 50 48 47 45 43 44 43 40 39 38 37 35 33 35 34 30 29 33 34 30 29 30
59 60 61 62 62 63 64 65 66 66 67 67 67 68 68 68 69 69 69 70 69 68 67 66 66 66 66 65 64 63 62 61 61 61 62 62 61 61 60 57 54 52 51 49 48 46 45 45 43 41 41 39 37 35 36 36 33 30 33 36 34 32 31
60 61 62 63 63 64 66 66 67 68 69 69 69 70 70 71 70 70 70 69 69 69 68 67 67 67 66 65 65 64 64 63 62 61 61 63 63 62 61 60 57 54 53 52 51 49 47 47 46 44 43 41 39 38 37 36 34 32 33 37 37 35 33
61 62 62 63 65 65 66 67 67 69 70 70 71 73 73 73 72 71 70 69 68 68 68 68 67 67 66 65 65 64 64 64 63 61 60 61 63 63 62 62 60 57 56 55 54 51 50 49 48 48 46 43 41 40 38 36 34 33 34 37 37 36 35
62 63 64 65 66 66 67 67 68 69 71 72 73 73 73 73 72 71 69 68 68 67 67 68 67 67 67 66 66 65 64 64 64 63 60 60 61 62 62 62 62 59 58 57 56 54 52 51 51 51 49 45 43 42 40 37 35 34 35 37 37 37 36
63 64 65 66 66 67 68 69 70 72 73 73 73 73 72 71 70 70 69 68 68 67 68 68 68 68 68 67 67 66 64 63 63 63 61 60 60 61 62 62 62 61 59 59 58 57 55 53 53 53 51 47 45 44 43 39 37 36 36 37 37 38 38
64 65 65 66 66 67 69 70 72 73 74 73 73 71 70 69 69 69 68 69 69 69 69 69 68 67 66 65 65 64 62 61 60 61 61 59 58 59 62 63 62 62 61 61 60 59 58 56 56 55 53 50 47 46 45 43 40 38 38 37 38 40 41
64 64 65 65 66 68 70 71 73 73 73 72 70 69 68 68 68 69 69 70 69 68 66 65 64 63 61 61 61 59 59 58 58 58 58 57 57 58 61 63 64 63 63 62 61 61 60 59 59 57 54 52 50 49 48 46 43 41 40 38 37 40 42
63 64 66 67 68 70 72 73 73 72 71 70 68 68 68 68 69 70 69 67 66 64 63 61 61 60 59 60 59 58 58 58 59 58 57 56 56 56 60 63 65 66 65 64 63 63 62 62 61 59 56 53 52 52 51 49 46 44 42 40 38 38 40
64 65 67 68 70 72 72 72 72 70 69 68 68 68 69 69 69 67 65 64 62 61 60 59 60 62 62 62 63 62 60 60 60 60 59 58 56 55 58 63 66 68 68 67 65 65 64 64 63 61 57 55 55 55 54 52 48 46 44 43 40 37 39
65 66 68 70 71 72 72 71 70 68 67 68 68 68 68 67 64 62 62 61 60 60 62 64 65 67 67 67 67 67 66 65 65 63 62 61 59 57 57 61 65 69 71 70 68 67 66 65 65 62 57 57 58 58 57 54 50 47 45 44 42 39 40
66 67 69 71 72 72 71 69 68 67 68 68 67 66 64 62 60 60 59 59 61 64 63 59 54 52 51 51 52 54 56 59 62 64 65 64 63 60 58 60 64 67 71 73 71 69 68 67 67 64 59 58 61 61 58 55 52 49 47 45 43 41 41
67 69 71 72 72 70 69 67 67 68 68 66 64 62 60 59 59 58 59 62 63 58 47 40 37 36 37 37 38 39 41 43 46 50 56 62 66 65 62 60 63 66 69 72 74 72 69 69 68 65 61 61 63 62 59 56 54 52 50 47 44 42 41
68 70 72 71 70 68 68 68 69 68 65 62 60 58 58 58 57 58 62 62 54 43 36 37 39 41 42 42 42 42 42 43 43 42 44 49 58 65 67 64 63 66 68 70 74 74 71 70 70 66 62 63 64 63 60 58 55 53 52 50 46 43 42
69 71 70 69 68 68 69 69 67 64 60 58 57 57 57 57 57 61 61 53 43 39 41 44 45 46 47 47 46 46 45 45 46 46 45 44 47 54 65 69 67 66 68 68 72 75 74 71 71 68 64 64 65 64 61 60 57 55 54 52 48 45 43
70 69 68 67 68 69 69 67 63 58 56 56 57 58 57 57 60 60 53 44 42 44 47 47 48 49 49 48 48 48 47 46 46 46 47 47 46 46 54 67 72 69 68 68 70 74 75 72 71 69 66 65 66 64 62 60 58 56 54 53 49 45 44
68 67 67 67 68 68 65 61 57 55 56 57 58 57 58 61 61 54 45 43 46 49 49 50 51 51 51 50 49 48 47 47 47 46 46 47 48 46 47 58 72 73 69 69 69 71 75 74 71 69 68 67 67 65 63 61 59 57 55 54 51 47 43
65 66 67 68 67 65 59 55 54 55 56 57 58 59 61 61 56 47 44 48 51 52 53 53 54 54 54 54 53 51 49 47 47 48 47 46 47 48 46 50 65 75 72 69 69 70 74 75 72 70 69 68 67 66 64 61 60 58 56 55 53 50 45
65 66 67 66 63 58 54 53 54 55 56 57 60 61 60 55 48 45 48 53 55 56 58 59 59 59 58 57 56 55 53 51 49 49 49 48 47 49 47 45 55 72 76 71 69 70 72 75 73 71 70 69 68 67 65 62 60 58 56 55 55 53 48
65 65 63 60 56 53 53 54 54 55 57 59 60 58 53 48 46 49 54 57 58 60 62 63 62 61 59 58 57 56 54 53 52 50 49 49 48 49 48 44 48 65 77 74 70 70 72 74 74 72 71 70 68 68 66 62 60 59 57 56 56 54 50
63 61 57 53 52 53 54 54 54 57 59 58 54 51 50 49 51 54 58 61 63 65 65 64 63 62 58 55 55 56 55 55 55 52 49 50 50 50 48 44 44 57 75 77 71 71 73 74 73 72 72 71 69 68 66 63 61 60 58 58 57 54 52
58 54 51 50 51 52 52 54 57 57 55 52 50 50 52 54 56 59 63 65 67 67 66 63 60 60 59 55 53 52 52 53 55 55 52 50 51 50 48 45 42 50 71 79 73 71 73 73 73 73 73 72 70 68 66 64 63 61 59 59 58 55 54
51 48 49 50 51 51 53 55 55 52 50 50 51 53 55 58 61 64 65 66 66 64 63 61 58 58 59 58 57 53 50 48 49 52 53 52 52 51 48 45 42 45 66 79 75 71 73 73 73 73 73 72 70 68 67 65 64 62 61 60 59 55 53
46 47 49 49 49 51 53 52 50 48 49 52 54 56 59 61 64 65 64 64 64 63 63 62 60 59 59 59 60 59 53 47 44 47 50 51 52 50 47 46 42 43 61 79 76 72 73 73 72 74 73 72 71 69 68 66 64 63 62 60 58 56 53
46 47 47 48 50 51 50 48 48 49 51 53 56 59 61 62 62 63 63 63 64 65 65 65 64 61 59 59 59 60 58 51 45 45 47 48 50 49 47 46 43 41 58 78 78 73 73 73 73 74 74 72 72 71 68 66 65 64 63 60 58 56 53
45 45 46 48 49 47 47 47 49 50 52 55 58 60 60 60 60 62 64 64 64 65 65 63 61 58 55 52 51 53 56 55 49 46 46 48 49 48 47 46 43 42 56 76 79 74 73 74 73 74 74 72 72 72 69 66 66 65 63 61 59 56 52
Wind_Direction
300 297 297 302 305 305 305 305 306 306 306 305 305 305 304 303 302 302 301 300 298 296 294 292 291 289 289 288 288 289 290 289 289 290 290 291 292 294 292 289 290 292 292 290 289 288 282 279 282 285 284 278 273 269 261 251 246 246 247 245 241 238 238
298 294 295 300 302 302 303 304 304 305 304 304 303 302 301 301 301 301 301 300 298 296 294 293 291 289 288 288 287 288 288 288 288 287 287 286 286 287 288 288 289 289 290 290 290 288 283 278 278 279 280 278 274 269 261 254 249 241 236 236 236 234 233
296 291 294 299 301 301 302 302 303 303 302 301 301 300 299 299 299 300 300 299 298 296 294 293 292 291 289 288 288 287 287 286 286 286 285 284 282 282 283 286 287 286 286 288 289 287 284 281 278 275 276 276 272 268 264 257 246 236 229 228 232 230 226
294 291 294 298 299 300 300 301 301 301 300 300 299 298 297 297 297 297 297 297 296 295 294 293 292 291 290 289 288 287 286 286 285 284 283 283 281 279 279 281 283 284 283 285 286 283 281 281 279 275 274 274 272 267 266 260 245 236 232 228 229 226 221
292 290 293 296 298 299 299 299 299 299 299 298 298 297 297 297 297 296 295 294 294 294 294 293 292 291 290 289 288 287 287 286 285 284 282 282 280 278 276 277 279 280 280 282 281 277 275 276 275 274 272 271 271 267 264 258 245 238 238 233 229 225 221
291 291 292 295 296 297 298 298 298 298 298 298 297 297 297 297 297 296 295 294 293 292 292 292 292 291 290 289 288 287 286 285 285 284 282 280 279 278 276 274 275 277 277 278 278 275 273 272 269 270 270 269 268 265 261 258 248 239 239 239 234 230 225
292 292 293 294 295 296 296 297 297 297 297 297 297 297 298 298 297 297 296 295 294 292 291 290 290 289 289 288 287 286 285 284 283 283 282 279 277 276 276 273 272 273 274 274 274 273 272 270 266 266 267 265 264 262 258 256 250 241 239 241 239 234 229
293 293 293 294 294 295 295 296 296 296 296 296 297 297 297 297 297 296 296 295 295 293 292 290 289 288 287 287 287 285 284 283 282 281 280 279 277 275 274 273 271 270 270 270 270 270 269 268 267 267 265 263 262 261 257 253 250 241 235 235 234 233 232
291 292 292 293 293 294 294 295 295 295 296 296 297 297 297 297 296 296 295 295 294 293 292 291 290 288 287 286 285 285 284 282 280 279 278 277 276 273 272 271 270 268 266 267 267 267 267 266 265 265 264 263 262 260 257 253 248 240 232 231 231 231 232
290 291 292 292 293 293 294 294 295 295 295 296 296 297 297 296 296 295 294 294 293 292 292 291 289 288 287 285 284 283 282 281 279 278 276 275 274 272 270 268 268 266 264 264 264 263 264 263 262 262 260 261 263 262 259 255 247 239 233 231 231 230 230
290 291 291 292 292 292 293 293 293 294 294 295 295 295 295 295 294 294 293 292 292 291 291 290 289 288 286 285 283 281 279 278 277 276 274 273 272 270 268 266 265 264 261 261 261 259 260 260 259 258 255 255 260 261 258 254 248 242 236 230 227 228 230
291 291 291 291 291 292 292 292 293 293 294 294 294 294 294 294 293 293 292 292 291 290 290 289 288 287 285 284 282 280 277 275 273 273 271 270 269 268 266 263 262 261 259 258 258 256 256 256 256 255 252 252 256 258 254 251 249 245 236 228 223 224 227
290 290 290 291 292 292 292 293 293 294 294 294 294 294 294 294 294 293 292 292 291 290 289 288 287 285 284 283 281 279 276 273 271 269 268 267 265 264 263 261 259 257 256 255 255 253 252 252 253 251 250 250 252 252 252 251 249 245 236 227 225 224 224
290 290 291 291 292 292 293 294 295 295 295 295 295 295 295 294 294 293 292 292 291 290 289 287 285 283 282 281 279 277 275 273 270 267 264 264 263 261 260 259 257 254 253 252 251 250 248 249 249 248 247 247 247 246 248 250 249 245 237 229 226 226 223
290 290 291 292 292 293 294 295 295 295 295 296 296 296 296 295 294 293 292 291 289 288 286 285 283 282 280 279 277 275 273 271 269 266 262 260 260 259 257 256 254 252 250 249 248 246 245 244 246 246 245 243 243 243 245 249 248 243 239 233 228 226 224
290 291 291 292 293 294 294 295 295 296 296 296 296 296 296 295 294 292 291 289 287 285 284 282 281 280 279 277 275 273 271 269 266 264 261 258 256 256 254 253 252 249 247 246 245 243 242 240 242 244 243 240 239 240 242 245 245 243 241 236 229 225 225
291 292 292 293 294 295 295 296 296 296 297 297 296 295 294 293 291 290 289 287 286 284 283 282 280 279 278 277 275 273 271 268 265 263 260 256 253 252 252 251 249 247 244 243 242 241 239 237 238 241 240 237 235 237 239 241 242 242 241 238 232 227 224
292 292 293 294 295 295 295 296 297 297 297 296 295 293 292 291 289 289 288 287 286 285 284 283 282 280 279 277 276 275 273 270 266 263 259 255 251 248 248 248 246 245 242 240 239 238 237 235 235 238 238 235 233 234 235 237 238 240 240 239 236 230 223
292 293 293 294 295 295 296 297 297 297 296 294 293 292 291 290 289 289 288 287 287 286 285 284 283 281 280 278 276 275 274 271 268 264 260 255 250 245 243 243 244 242 240 238 236 235 235 233 233 234 235 233 231 231 232 233 234 237 240 238 235 230 222
293 294 294 295 296 297 298 298 297 296 294 293 292 292 291 291 290 290 289 287 287 286 285 284 283 282 280 279 277 274 272 271 268 266 262 257 250 244 240 239 240 240 239 237 235 233 233 232 231 232 232 230 230 229 229 230 231 235 239 238 232 228 224
294 295 296 297 298 299 299 298 296 295 293 293 293 293 292 292 291 289 288 287 287 287 286 286 285 284 281 279 276 273 271 269 267 265 263 259 254 246 239 236 236 237 237 236 233 232 231 230 230 230 229 228 228 228 228 228 229 231 235 234 231 229 226
295 296 297 298 299 299 298 296 295 294 293 294 294 294 292 291 289 288 288 288 288 289 289 288 286 283 280 277 274 272 269 267 265 263 262 260 257 250 241 236 234 234 234 235 233 231 230 229 229 229 227 225 226 227 227 226 226 228 230 230 230 231 227
296 297 299 300 300 299 297 295 294 294 294 295 294 292 290 288 288 288 288 290 291 292 290 288 284 281 279 277 275 273 270 267 264 261 259 258 256 252 245 237 234 233 232 232 232 231 228 228 228 227 225 224 224 225 225 224 224 226 229 229 228 229 227
298 299 300 301 299 297 296 295 294 295 295 294 292 290 288 288 289 290 292 294 294 292 288 286 285 285 284 282 280 278 276 272 269 264 259 256 253 251 247 240 235 233 232 230 230 230 228 226 227 226 223 222 223 223 224 223 222 224 228 229 229 229 227
300 301 301 300 298 296 295 295 295 296 295 292 290 289 290 291 292 294 296 296 291 286 284 285 287 287 285 284 282 280 277 274 272 269 265 260 254 250 246 242 236 233 232 229 228 229 228 226 226 225 221 221 221 221 222 222 221 223 226 228 229 229 227
303 302 300 298 296 295 295 296 296 295 293 291 290 291 292 292 294 297 296 290 283 281 285 287 287 286 285 283 282 280 276 272 270 268 265 263 261 254 247 241 236 232 230 229 227 227 227 225 225 224 221 219 219 219 219 220 221 222 224 227 228 227 225
303 301 298 296 295 295 296 296 295 294 293 292 292 292 293 294 296 296 290 281 280 285 288 288 288 286 284 282 281 278 274 270 267 266 264 262 263 263 253 242 236 232 229 228 226 226 226 225 224 223 220 219 218 217 217 219 220 221 223 225 226 224 223
301 298 296 295 295 296 296 296 295 294 294 293 293 293 294 296 297 292 283 280 285 289 289 289 287 285 284 283 282 279 274 269 265 263 263 262 260 263 262 248 236 231 228 226 225 225 224 223 223 221 219 218 217 216 215 217 218 220 221 222 222 223 223
297 295 295 296 296 296 296 296 295 295 294 293 293 295 296 296 294 286 281 285 289 289 289 288 287 287 286 285 283 280 276 271 267 263 262 262 259 259 263 255 239 230 226 224 223 223 222 222 221 220 218 217 216 214 213 214 216 218 220 221 221 223 224
295 295 296 296 296 297 297 297 296 295 294 294 295 296 296 293 288 284 284 288 289 289 289 289 289 289 289 286 283 280 276 271 268 265 261 260 258 256 258 259 245 231 224 221 221 221 221 220 219 219 217 215 214 213 212 213 215 217 219 220 221 223 223
296 297 297 297 297 298 298 297 296 295 295 296 297 296 294 290 286 285 287 288 288 288 289 289 290 289 287 285 281 277 275 270 266 265 262 258 257 255 254 257 250 233 223 219 219 220 219 218 217 217 216 214 213 212 211 211 213 216 218 219 221 222 220
298 298 297 297 298 298 297 296 296 296 297 298 297 294 292 290 288 287 288 289 289 289 290 291 290 289 286 283 279 275 272 269 264 261 260 257 255 254 252 253 252 236 222 217 216 217 218 216 214 215 214 213 211 210 210 210 211 214 216 218 220 220 219
298 297 297 298 297 296 296 296 298 298 298 297 294 293 292 291 289 290 290 291 291 292 292 292 291 290 289 286 282 278 272 268 264 259 256 254 252 252 249 249 252 238 222 215 214 215 216 214 212 213 213 211 209 208 208 209 210 212 214 216 218 219 219
297 296 297 297 296 296 297 298 299 298 296 295 294 294 293 292 292 293 293 292 293 292 292 293 292 291 291 288 284 281 275 270 266 259 254 250 248 248 246 245 249 239 222 214 212 213 214 211 210 211 211 209 208 207 207 207 209 210 212 215 217 217 219
296 296 296 296 297 299 299 299 298 297 296 295 295 295 295 295 295 294 293 293 294 294 294 295 294 291 288 285 281 279 276 271 265 258 252 246 242 243 242 240 244 238 220 212 210 211 212 209 208 209 209 208 207 207 206 206 207 208 211 214 216 216 218
296 297 297 298 300 300 300 299 297 297 296 297 297 297 297 297 295 295 296 296 297 298 298 297 295 291 287 282 276 273 271 268 262 256 249 240 236 237 237 235 239 235 218 211 209 209 209 207 206 207 207 206 206 206 205 204 205 207 209 212 214 215 216
297 298 299 301 301 300 299 298 297 298 299 300 301 300 299 298 298 298 299 299 301 302 301 299 296 292 287 281 273 268 266 263 258 252 246 236 229 230 232 231 235 232 216 208 207 207 207 205 205 205 205 204 205 205 204 203 204 206 207 209 212 214 214
Height
5802 5801 5800 5800 5799 5798 5797 5796 5796 5795 5795 5794 5793 5792 5790 5789 5788 5787 5786 5785 5784 5783 5782 5782 5782 5781 5781 5780 5780 5779 5780 5781 5781 5782 5782 5782 5781 5780 5778 5777 5778 5778 5778 5778 5778 5777 5778 5779 5778 5777 5776 5774 5774 5774 5774 5776 5779 5781 5782 5782 5783 5785 5786
5798 5797 5796 5796 5795 5793 5792 5791 5791 5790 5789 5788 5787 5787 5786 5784 5783 5782 5781 5780 5779 5779 5778 5777 5777 5777 5776 5776 5775 5775 5775 5776 5777 5777 5778 5778 5778 5777 5775 5774 5775 5776 5776 5776 5776 5776 5776 5777 5777 5776 5774 5773 5772 5772 5771 5771 5775 5779 5780 5780 5780 5781 5782
5794 5793 5791 5790 5790 5789 5788 5786 5786 5785 5784 5783 5782 5781 5780 5779 5778 5777 5776 5775 5774 5773 5773 5773 5772 5772 5771 5771 5770 5770 5771 5771 5771 5772 5773 5774 5774 5773 5772 5771 5772 5772 5772 5772 5773 5773 5773 5774 5775 5774 5772 5771 5771 5770 5768 5768 5770 5774 5777 5777 5777 5778 5779
5789 5788 5786 5785 5784 5783 5782 5781 5780 5779 5778 5778 5777 5776 5775 5774 5773 5772 5771 5770 5769 5768 5768 5768 5767 5767 5766 5766 5765 5765 5765 5766 5766 5767 5768 5769 5769 5769 5768 5768 5768 5768 5768 5769 5770 5770 5769 5770 5771 5772 5770 5769 5769 5769 5767 5766 5767 5769 5772 5774 5775 5776 5777
5784 5783 5781 5780 5779 5777 5776 5775 5774 5773 5772 5771 5770 5769 5768 5767 5767 5766 5766 5766 5765 5764 5763 5762 5762 5761 5761 5761 5760 5760 5760 5760 5760 5761 5762 5764 5764 5764 5764 5764 5764 5765 5765 5765 5766 5766 5766 5766 5767 5768 5767 5766 5767 5767 5765 5764 5765 5767 5768 5771 5773 5774 5775
5779 5778 5776 5774 5773 5771 5770 5769 5768 5767 5766 5765 5763 5762 5761 5760 5760 5760 5760 5760 5760 5759 5758 5757 5756 5755 5755 5755 5754 5754 5754 5754 5755 5755 5756 5758 5758 5759 5760 5760 5760 5761 5761 5760 5761 5762 5762 5762 5763 5764 5763 5763 5764 5764 5763 5762 5764 5765 5766 5768 5770 5772 5773
5774 5772 5770 5768 5767 5765 5764 5762 5761 5760 5759 5757 5756 5755 5753 5753 5753 5753 5753 5753 5753 5753 5752 5751 5750 5749 5748 5748 5748 5748 5748 5748 5748 5748 5750 5751 5752 5753 5754 5755 5756 5757 5756 5756 5757 5758 5758 5758 5759 5760 5759 5760 5761 5761 5761 5761 5762 5763 5764 5765 5766 5768 5772
5767 5765 5764 5762 5760 5759 5757 5755 5754 5753 5752 5750 5749 5747 5746 5746 5745 5745 5745 5744 5744 5744 5744 5744 5744 5743 5742 5741 5741 5741 5741 5742 5742 5742 5742 5744 5745 5747 5748 5749 5751 5752 5752 5751 5752 5753 5753 5754 5756 5756 5756 5757 5758 5758 5758 5758 5760 5761 5762 5762 5762 5765 5768
5761 5759 5757 5755 5754 5752 5750 5748 5747 5746 5744 5743 5741 5740 5739 5738 5737 5736 5736 5736 5735 5735 5735 5735 5735 5735 5735 5734 5734 5733 5733 5734 5734 5735 5735 5736 5738 5740 5741 5742 5744 5746 5747 5746 5746 5748 5748 5750 5752 5752 5752 5753 5754 5755 5755 5756 5758 5759 5759 5760 5761 5762 5765
5754 5752 5750 5749 5747 5744 5743 5741 5740 5738 5736 5735 5733 5732 5731 5730 5729 5728 5727 5726 5726 5726 5725 5725 5726 5726 5726 5726 5726 5726 5725 5725 5725 5727 5727 5728 5729 5731 5733 5735 5736 5739 5740 5740 5741 5743 5743 5744 5747 5748 5748 5749 5749 5751 5753 5754 5755 5756 5756 5757 5759 5760 5762
5747 5745 5743 5741 5739 5737 5736 5734 5732 5731 5729 5728 5726 5725 5724 5722 5721 5720 5718 5718 5717 5716 5716 5716 5716 5716 5716 5716 5717 5717 5717 5716 5716 5717 5719 5719 5720 5722 5724 5727 5729 5731 5733 5734 5735 5737 5738 5739 5741 5743 5744 5746 5746 5747 5750 5750 5751 5753 5753 5754 5756 5757 5759
5740 5738 5736 5734 5732 5730 5728 5726 5724 5723 5721 5719 5718 5716 5715 5714 5712 5711 5709 5709 5708 5707 5706 5706 5705 5705 5705 5706 5706 5706 5707 5707 5707 5707 5709 5710 5711 5713 5715 5718 5721 5723 5725 5726 5728 5731 5732 5733 5735 5737 5738 5741 5743 5744 5745 5746 5748 5749 5749 5751 5753 5754 5755
5732 5730 5728 5725 5723 5721 5720 5718 5716 5714 5712 5710 5708 5707 5705 5704 5702 5701 5699 5698 5697 5696 5696 5695 5694 5693 5693 5694 5695 5695 5695 5696 5696 5697 5698 5699 5701 5703 5705 5708 5712 5715 5716 5718 5721 5723 5726 5727 5730 5731 5732 5735 5738 5740 5740 5741 5744 5745 5745 5746 5748 5749 5751
5724 5722 5720 5717 5715 5713 5711 5709 5706 5704 5702 5700 5698 5696 5695 5693 5692 5690 5689 5687 5685 5684 5683 5683 5682 5681 5681 5682 5683 5683 5684 5684 5685 5687 5688 5688 5689 5692 5695 5698 5702 5706 5708 5709 5712 5716 5719 5721 5723 5725 5726 5729 5732 5734 5735 5737 5739 5741 5741 5742 5745 5746 5746
5716 5714 5712 5709 5707 5705 5702 5700 5697 5695 5693 5691 5688 5685 5684 5682 5680 5679 5677 5676 5674 5672 5671 5670 5669 5669 5669 5670 5671 5671 5672 5672 5672 5674 5677 5677 5678 5680 5684 5687 5691 5696 5699 5701 5704 5708 5711 5714 5716 5718 5720 5723 5726 5728 5729 5732 5735 5737 5737 5739 5741 5743 5743
5707 5705 5703 5700 5698 5696 5693 5691 5688 5685 5683 5681 5678 5675 5672 5670 5668 5666 5665 5664 5662 5661 5660 5658 5657 5657 5657 5657 5658 5658 5659 5660 5660 5662 5664 5666 5667 5669 5672 5676 5680 5685 5689 5692 5695 5699 5703 5706 5709 5711 5713 5716 5720 5723 5725 5727 5730 5732 5734 5735 5737 5739 5741
5698 5696 5693 5691 5689 5686 5683 5681 5678 5675 5672 5670 5668 5664 5661 5658 5656 5654 5653 5651 5650 5649 5647 5646 5646 5646 5645 5644 5644 5645 5646 5647 5648 5649 5652 5654 5657 5658 5661 5664 5668 5673 5678 5682 5686 5690 5695 5699 5701 5703 5706 5710 5714 5717 5719 5722 5726 5728 5729 5731 5733 5735 5737
5689 5687 5684 5682 5679 5676 5674 5671 5668 5665 5662 5659 5657 5653 5651 5648 5645 5643 5641 5639 5637 5637 5635 5634 5633 5633 5633 5632 5632 5632 5633 5634 5635 5637 5639 5642 5645 5648 5650 5653 5657 5662 5667 5671 5676 5681 5685 5690 5693 5696 5699 5703 5707 5711 5713 5716 5720 5722 5723 5726 5729 5730 5732
5680 5678 5676 5674 5671 5668 5665 5662 5658 5655 5651 5648 5646 5643 5640 5637 5634 5631 5630 5627 5625 5625 5624 5623 5622 5622 5622 5621 5621 5622 5622 5622 5623 5624 5627 5629 5633 5636 5639 5642 5646 5651 5655 5660 5666 5671 5675 5680 5685 5688 5692 5696 5701 5704 5707 5710 5714 5716 5718 5720 5723 5725 5727
5672 5669 5667 5665 5662 5658 5655 5652 5648 5644 5641 5637 5635 5632 5629 5626 5623 5620 5618 5616 5614 5613 5613 5613 5612 5612 5611 5610 5610 5611 5612 5611 5612 5613 5615 5618 5621 5624 5628 5631 5636 5640 5644 5649 5655 5661 5666 5671 5675 5680 5685 5689 5694 5697 5699 5703 5707 5710 5712 5715 5717 5720 5722
5663 5661 5658 5655 5652 5648 5645 5641 5637 5633 5630 5626 5624 5621 5617 5614 5611 5609 5607 5605 5604 5603 5603 5603 5602 5600 5600 5599 5598 5599 5601 5601 5601 5602 5604 5606 5610 5613 5617 5620 5625 5629 5634 5639 5645 5650 5656 5661 5665 5671 5677 5682 5686 5689 5692 5696 5700 5703 5707 5710 5713 5715 5717
5655 5652 5649 5645 5642 5639 5635 5630 5627 5623 5620 5616 5613 5610 5607 5603 5601 5599 5597 5595 5595 5594 5592 5592 5590 5587 5586 5585 5585 5585 5587 5588 5589 5591 5593 5595 5598 5602 5606 5609 5613 5618 5623 5628 5634 5640 5646 5651 5656 5662 5670 5675 5678 5680 5684 5689 5694 5697 5701 5705 5708 5711 5713
5646 5643 5639 5636 5632 5628 5624 5620 5616 5613 5610 5607 5603 5600 5596 5594 5592 5590 5588 5586 5585 5583 5581 5580 5578 5575 5573 5573 5572 5572 5573 5574 5576 5578 5581 5584 5586 5590 5595 5599 5603 5607 5612 5618 5624 5629 5635 5641 5646 5653 5661 5666 5669 5673 5678 5683 5688 5692 5695 5699 5703 5706 5708
5637 5633 5629 5625 5621 5617 5613 5610 5607 5603 5600 5597 5593 5589 5587 5585 5582 5580 5578 5577 5574 5572 5571 5570 5569 5568 5566 5566 5565 5565 5565 5565 5565 5567 5569 5572 5574 5578 5583 5588 5592 5596 5601 5607 5613 5619 5625 5631 5636 5644 5652 5657 5661 5666 5672 5677 5683 5686 5689 5694 5697 5701 5704
5627 5623 5619 5614 5610 5606 5602 5599 5596 5593 5590 5587 5583 5580 5578 5575 5573 5571 5568 5566 5564 5563 5563 5562 5562 5561 5560 5559 5559 5559 5558 5558 5558 5559 5560 5561 5563 5566 5571 5576 5581 5585 5590 5597 5603 5608 5615 5621 5627 5635 5643 5648 5652 5659 5665 5671 5676 5680 5683 5688 5693 5696 5700
5618 5613 5608 5604 5600 5596 5593 5590 5587 5583 5580 5577 5574 5571 5569 5566 5564 5562 5559 5557 5555 5555 5555 5554 5554 5553 5552 5551 5551 5550 5551 5550 5550 5550 5551 5553 5554 5555 5559 5564 5569 5574 5580 5587 5593 5598 5605 5612 5618 5626 5634 5639 5644 5652 5658 5664 5669 5673 5677 5682 5688 5692 5695
5608 5603 5599 5595 5591 5587 5584 5580 5577 5574 5570 5567 5564 5562 5560 5557 5555 5552 5549 5548 5547 5547 5547 5546 5545 5544 5543 5542 5542 5541 5542 5542 5541 5542 5543 5544 5545 5546 5548 5551 5556 5563 5570 5576 5583 5589 5596 5602 5609 5617 5625 5630 5637 5645 5652 5658 5663 5667 5671 5676 5682 5687 5690
5598 5594 5590 5586 5582 5578 5575 5571 5568 5564 5561 5558 5555 5553 5550 5547 5545 5542 5540 5539 5539 5538 5538 5537 5536 5534 5533 5533 5532 5532 5532 5532 5532 5533 5534 5535 5536 5537 5538 5539 5544 5551 5558 5566 5573 5580 5587 5593 5600 5608 5615 5622 5629 5638 5646 5651 5657 5661 5665 5671 5677 5682 5685
5589 5585 5581 5577 5573 5569 5566 5563 5559 5555 5552 5549 5546 5544 5541 5537 5535 5533 5532 5531 5530 5528 5528 5527 5525 5524 5523 5522 5522 5522 5522 5523 5523 5523 5525 5525 5526 5528 5529 5529 5532 5539 5548 5556 5564 5570 5577 5585 5592 5599 5607 5614 5622 5631 5639 5645 5650 5655 5659 5665 5671 5677 5681
5581 5577 5572 5568 5564 5561 5558 5555 5551 5547 5543 5541 5537 5534 5531 5528 5526 5525 5523 5522 5520 5518 5517 5515 5514 5513 5512 5511 5510 5510 5511 5512 5513 5514 5515 5516 5517 5518 5520 5520 5521 5527 5537 5546 5554 5561 5568 5576 5584 5591 5598 5607 5615 5624 5632 5639 5644 5649 5654 5660 5665 5670 5675
5572 5568 5564 5560 5557 5554 5550 5547 5543 5539 5535 5532 5529 5525 5521 5519 5518 5516 5514 5512 5511 5509 5506 5505 5504 5502 5502 5500 5498 5498 5499 5500 5502 5503 5504 5505 5506 5508 5510 5512 5512 5516 5525 5535 5544 5551 5558 5567 5575 5583 5590 5599 5607 5617 5625 5632 5638 5643 5648 5653 5658 5664 5671
5563 5559 5556 5553 5550 5546 5543 5539 5535 5531 5527 5523 5520 5516 5513 5511 5509 5508 5505 5502 5499 5497 5495 5495 5493 5491 5491 5491 5488 5486 5487 5487 5489 5492 5494 5494 5496 5498 5500 5503 5504 5506 5515 5525 5534 5542 5550 5558 5567 5575 5582 5591 5600 5610 5619 5626 5631 5636 5642 5648 5653 5659 5666
5555 5552 5549 5547 5543 5539 5535 5531 5527 5524 5520 5515 5512 5509 5506 5503 5500 5498 5495 5491 5488 5486 5483 5483 5483 5480 5477 5478 5477 5476 5475 5475 5477 5480 5482 5483 5485 5487 5491 5494 5495 5498 5506 5516 5525 5534 5542 5551 5560 5568 5575 5583 5594 5604 5613 5619 5624 5629 5636 5642 5648 5654 5660
5549 5546 5543 5540 5536 5533 5529 5524 5520 5516 5512 5508 5505 5501 5498 5494 5491 5488 5484 5480 5477 5475 5472 5471 5471 5468 5465 5464 5463 5463 5463 5464 5465 5466 5468 5471 5474 5477 5481 5485 5487 5491 5497 5507 5517 5525 5534 5544 5553 5561 5568 5578 5589 5597 5605 5611 5617 5623 5630 5636 5642 5649 5656
5543 5541 5537 5533 5530 5526 5522 5518 5513 5510 5505 5501 5497 5493 5489 5485 5480 5477 5474 5470 5466 5463 5461 5458 5457 5456 5453 5451 5449 5448 5448 5451 5453 5453 5454 5458 5462 5466 5471 5475 5479 5483 5488 5498 5508 5517 5526 5536 5545 5553 5562 5572 5581 5589 5596 5604 5611 5618 5625 5631 5638 5645 5652
5538 5535 5531 5527 5524 5520 5516 5511 5507 5503 5499 5494 5489 5485 5480 5476 5471 5466 5463 5459 5455 5452 5448 5445 5442 5440 5439 5437 5435 5433 5433 5437 5440 5440 5442 5446 5451 5456 5461 5466 5470 5474 5479 5488 5499 5509 5518 5528 5538 5547 5555 5565 5573 5582 5590 5598 5605 5612 5619 5626 5633 5641 5647
5532 5529 5525 5521 5518 5514 5510 5505 5501 5497 5492 5487 5481 5476 5471 5466 5462 5456 5452 5449 5445 5441 5435 5430 5427 5425 5423 5422 5421 5420 5419 5422 5425 5428 5430 5435 5440 5445 5451 5457 5462 5466 5471 5479 5490 5501 5511 5521 5531 5540 5548 5558 5567 5575 5583 5592 5600 5607 5614 5621 5629 5636 5643